Other Public Products
Issued by NWS Grand Forks, ND

Home | Current Version | Previous Version | Text Only | Print | Product List | Glossary On
Versions: 1 2 3 4 5 6 7 8 9 10 11 12 13 14 15 16 17 18 19 20 21 22 23 24 25 26 27 28 29 30 31 32 33 34 35 36 37 38 39 40 41 42 43 44 45 46 47 48 49 50
000
FPUS83 KFGF 211031
OPUFGF
PRAIRIE TO PINES WEATHER ROUNDUP
NATIONAL WEATHER SERVICE EASTERN NORTH DAKOTA/GRAND FORKS ND
500 AM CDT SAT OCT 21 2017

 **SATELLITE DATA USED TO AUGMENT SKY COVER AT AUTOMATED STATIONS**
 *****  WEATHER ACROSS EASTERN NORTH DAKOTA  *****

CITY           SKY/WX    TMP DP  RH WIND       PRES   REMARKS
GRAND FORKS    FAIR      66  59  78 S22G31    29.32S
GRAND FORKS AF FAIR      64  57  80 S20       29.31F
GRAND CITY NWS NOT AVBL
BUXTON           N/A     64  60  88 SE17        N/A
DEVILS LAKE    FAIR      59  52  77 S13       29.27S
FARGO          FAIR      65  58  78 S21G36    29.38S
WAHPETON ARPT  NOT AVBL
$$

 *****  WEATHER ACROSS CENTRAL AND WESTERN NORTH DAKOTA  *****

CITY           SKY/WX    TMP DP  RH WIND       PRES   REMARKS
JAMESTOWN      FAIR      58  54  86 S10       29.35R
BISMARCK       FAIR      56  36  47 W13G22    29.41R
MINOT          FAIR      57  34  41 SW16      29.30R
MINOT AFB      FAIR      54  33  45 W12       29.28R
GARRISON         N/A     51  36  56 W21G28    29.38R
WILLISTON      CLEAR     46  37  71 S13       29.44R
DICKINSON      FAIR      46  37  71 W22G31    29.48R
HETTINGER      CLOUDY    47  34  60 W28G36    29.53F
$$

 *****  OTHER OBSERVATIONS NORTHEAST NORTH DAKOTA  *****

CITY           SKY/WX    TMP DP  RH WIND       PRES   REMARKS
WALHALLA       FAIR     N/A N/A N/A SE14      29.26S
LANGDON        FAIR      59  57  94 S17       29.27F
CAVALIER       FAIR      63  59  88 S14G20    29.27F
GRAFTON        FAIR      63  59  88 S18G26    29.32S
CANDO          FAIR      54  54 100 S10       29.27R
FORT TOTTEN      N/A     58  51  78 S7        29.95S
ROLLA          FAIR      52  52 100 S15       29.22R
RUGBY          FAIR      50  37  62 W15       29.28R
 ***** THE ABOVE OBSERVATIONS ARE NON NWS ARE NOT QUALITY
        CONTROLLED AND MAY MIS-REPORT RAIN FOR SNOW...
$$

 *****  OTHER OBSERVATIONS SOUTHEAST NORTH DAKOTA *****

CITY           SKY/WX    TMP DP  RH WIND       PRES   REMARKS
COOPERSTOWN    FAIR      61  57  88 S16       29.34S
VALLEY CITY      N/A     61  61 100 S17G23    29.37R
OAKES          NOT AVBL
GWINNER        SUNNY     64  59  82 S15G26    29.39R
SHEYENNE NWR     N/A     64  59  83 S10       29.95S
BUFFALO          N/A     62  56  83 S10         N/A
WYNDMERE       NOT AVBL
 ***** THE ABOVE OBSERVATIONS ARE NON NWS ARE NOT QUALITY
       CONTROLLED AND MAY MIS-REPORT RAIN FOR SNOW...
$$

  *****  WEATHER ACROSS NORTHERN MINNESOTA  *****

CITY           SKY/WX    TMP DP  RH WIND       PRES   REMARKS
FLAG ISLAND    FAIR      57  52  82 SE20      29.42S
WARROAD        FAIR      63  57  82 S16       29.43R
ROSEAU         FAIR      64  57  77 SE16      29.40S
HALLOCK        FAIR      66  57  72 S24G33    29.32S
THF RVR FALLS  FAIR      65  57  75 S21G28    29.41S
HALSTAD          N/A     64  57  77 S22         N/A
FOSSTON        FAIR      63  54  72 S22G29    29.44R
BAUDETTE       FAIR      61  55  81 SE16G24   29.47F
WASKISH        FAIR      61  55  82 SE8G16    29.49S
CROOKSTON      FAIR      66  57  72 S25G31    29.37R
$$
  *****  WEATHER ACROSS CENTRAL AND WEST MINNESOTA  *****

CITY           SKY/WX    TMP DP  RH WIND       PRES   REMARKS
BEMIDJI        CLOUDY    63  56  78 S17       29.49F
PARK RAPIDS    MOCLDY    63  56  78 S17G29    29.52F
WADENA         MOCLDY    61  55  82 S17G24    29.52R
DETROIT LAKES  FAIR      63  55  77 S17       29.47S
MOORHEAD       FAIR      64  57  77 S23G33    29.41R
FERGUS FALLS   FAIR      63  55  77 S17G23    29.47S
ELBOW LAKE     FAIR      61  56  85 SE21G28   29.48F
MORRIS MN      FAIR      63  57  82 SE13      29.49R
STAPLES        MOCLDY    63  54  72 S16G22    29.55S
WHEATON        FAIR      63  55  77 SE13      29.47R
$$
  *****  WEATHER ELSEWHERE ACROSS MINNESOTA  *****

CITY           SKY/WX    TMP DP  RH WIND       PRES   REMARKS
DULUTH         MOCLDY    60  52  74 S16G24    29.69S
INTRNTL FALLS  FAIR      63  49  60 S8G17     29.54F
ELY            FAIR      61  46  59 S13       29.65F
CLOQUET        FAIR      61  50  67 S9G17     29.67F
BRAINERD       FAIR      62  55  77 S14G24    29.59F
HIBBING        FAIR      60  51  72 S9G20     29.63F
ALEXANDRIA     FAIR      62  56  80 S17       29.54F
SAINT CLOUD    FAIR      63  55  75 S17       29.61F
MINNEAPOLIS    MOCLDY    63  53  70 S10       29.69F
$$

  *****  WEATHER ACROSS SOUTH DAKOTA  *****

CITY           SKY/WX    TMP DP  RH WIND       PRES   REMARKS
SIOUX FALLS    MOCLDY    66  60  81 S17G25    29.51S
BROOKINGS      FAIR      63  57  81 S16       29.49F
WATERTOWN      FAIR      62  57  83 S16       29.46S
HURON          FAIR      64  58  80 S13       29.42S
SISSETON         N/A     66  58  75 S18G26    29.41S
ABERDEEN       FAIR      63  58  83 S15G23    29.39R
MITCHELL       FAIR      65  58  78 S12       29.45R
PIERRE         FAIR      59  44  57 NW23      29.43R
MOBRIDGE       FAIR      59  41  51 NW17G25   29.43R
RAPID CITY     CLOUDY    50  30  46 N32G40    29.58R
$$

  *****  SOME WEATHER IN NEARBY STATES *****

CITY           SKY/WX    TMP DP  RH WIND       PRES   REMARKS
GLASGOW MT     CLOUDY    45  38  76 W24G35    29.49R
GREAT FALLS MT FAIR      34  24  67 SW13      29.75R WCI  25
CHEYENNE WY    FAIR      40  14  34 NW25G37   29.73R
SCOTTSBLUFF NE MOCLDY    50  23  34 W20G30    29.69R
OMAHA NE       CLOUDY    65  60  84 S20G26    29.62S
DES MOINES IA  LGT RAIN  64  58  80 S16       29.77R
DAVENPORT IA   FAIR      63  50  62 S14G23    29.96F
CHICAGO IL     MOCLDY    63  48  58 S9        30.05S
EAU CLAIRE WI  FAIR      61  48  62 SE10      29.78F
LA CROSSE WI   FAIR      65  51  60 S15       29.83S
$$

  *****  SOME NATIONAL WEATHER *****

CITY           SKY/WX    TMP DP  RH WIND       PRES   REMARKS
LA GUARDIA NY  FAIR      60  45  57 CALM      30.27R
RALEIGH NC     FAIR      48  48 100 CALM      30.28R
ATLANTA GA     MOCLDY    56  48  74 E6        30.24R
NEW ORLEANS LA MOCLDY    75  70  84 E12       30.01S
OKLAHOMA CITY  CLOUDY    69  65  86 S18G26    29.81R
ALBUQUERQUE NM CLOUDY    60  36  40 W15       29.90F
SALT LAKE CITY MOCLDY    42  30  62 SE5       30.08R
LOS ANGELES CA FAIR      63  38  39 N7        29.99R
BOISE ID       FAIR      35  29  78 CALM      30.09R
SEATTLE WA     CLOUDY    47  39  74 SE7       29.90S
$$

*** WEATHER ACROSS MANITOBA...SASKATCHEWAN AND ONTARIO ***
                ***ONTARIO***

CITY           SKY/WX    TMP DP  RH WIND       PRES   REMARKS
GERALDTON      PTCLDY    48  45  87 S6        29.82R
THUNDER BAY    CLOUDY    54  48  82 NE5       29.75F
SIOUX LOOKOUT  CLOUDY    61  46  59 S8        29.57F
TORONTO        PTCLDY    52  43  71 S3        30.21R
BIG TROUT LK   MOCLDY    37  34  87 SE13G22   29.70F
PICKLE LAKE    NOT AVBL
DRYDEN         CLEAR     61  46  59 S13G21    29.54F
KENORA         MOCLDY    63  50  63 S15       29.46S
$$
                *** MANITOBA***

CITY           SKY/WX    TMP DP  RH WIND       PRES   REMARKS
BRANDON        CLEAR     45  43  93 E6        29.18S
DAUPHIN        CLEAR     36  36 100 W7        29.18S
ISLAND LAKE    MOCLDY    50  43  76 SE16      29.38
PILOT MOUND      N/A     57  52  82 S16         N/A
THE PAS        CLEAR     41  37  87 VRB2      29.24R
THOMPSON       CLOUDY    39  36  87 E7        29.34F
WINNIPEG       PTCLDY    64  57  77 S20G31    29.28R
LYNN LAKE      CLOUDY    36  36 100 E9        29.36F
CHURCHILL      MOCLDY    36  32  87 SE24G33   29.67F
GILLAM         CLOUDY    37  32  81 SE9G18    29.50F
$$
                ***SASKATCHEWAN***

CITY           SKY/WX    TMP DP  RH WIND       PRES   REMARKS
ESTEVAN        PTCLDY    48  34  57 W15       29.30R
KINDERSLEY     LGT RAIN  41  37  87 NW17G25   29.47R
LLOYDMINSTER   CLOUDY    41  36  81 NW10      29.47R
PRINCE ALBERT  CLOUDY    37  36  93 NW8       29.33R
REGINA         MOCLDY    41  36  81 W12G17    29.29R
YORKTON        CLOUDY    37  36  93 W6        29.19R



USA.gov is the U.S. government's official web portal to all federal, state and local government web resources and services.